Location: Newark
(38.4486°N, 122.7047°W)
Time: 11:59:13
(UTC+00:00)

ISS - Visible Passes

Search period start: 20 September 2020 00:00
Search period end: 30 September 2020 00:00
Orbit: 419 x 420 km, 51.6° (Epoch: 20 September)

Date Brightness Start Highest point End Pass type
(mag) Time Alt. Az. Time Alt. Az. Time Alt. Az.
20 Sep -3.8 02:32:35 10° SW 02:35:56 77° SE 02:39:19 10° NE visible
20 Sep -1.2 04:10:43 10° WNW 04:13:06 18° NNW 04:14:04 16° N visible
21 Sep -1.6 03:22:43 10° W 03:25:32 24° NNW 03:28:22 10° NNE visible
22 Sep -2.2 02:34:53 10° W 02:38:01 36° NNW 02:41:10 10° NE visible
22 Sep -0.8 04:14:32 10° NNW 04:15:36 11° NNW 04:16:18 11° N visible
23 Sep -1.0 03:26:08 10° NW 03:27:56 14° NNW 03:29:44 10° NNE visible
24 Sep -1.2 02:37:55 10° WNW 02:40:17 18° NNW 02:42:39 10° NNE visible
26 Sep -0.9 02:41:40 10° NNW 02:42:43 11° NNW 02:43:47 10° N visible
29 Sep -1.1 03:34:31 10° N 03:35:32 11° NNE 03:35:41 11° NNE visible
